This demonstration page uses our WeatherBlox Daily Observations layout. Learn more.

Left ArrowRight Arrow

Hourly Observations for August 20, 2019

Temp ( °F °C ) Dew Point ( °F °C ) Humidity (%) Winds ( mph kmh ) Pressure ( in mb ) Visibility ( mi km ) Precip ( " mm )
12:53 am 00:53 Clear 85 29.4 52 11.1 32 32 SSE 14 22 29.85 1011 10 16 0.00 0.00
1:53 am 01:53 Clear 84 28.9 56 13.3 38 38 SSE 13 20 29.85 1011 10 16 0.00 0.00
2:53 am 02:53 Clear 83 28.3 58 14.4 43 43 SSE 13 20 29.85 1011 10 16 0.00 0.00
3:53 am 03:53 Clear 82 27.8 58 14.4 44 44 SE 6 9 29.87 1011 10 16 0.00 0.00
4:53 am 04:53 Clear 80 26.7 59 15 49 49 SE 9 15 29.86 1011 10 16 0.00 0.00
5:53 am 05:53 Clear 79 26.1 60 15.6 52 52 SE 8 13 29.87 1012 10 16 0.00 0.00
6:53 am 06:53 Clear 78 25.6 61 16.1 56 56 ESE 9 15 29.88 1012 10 16 0.00 0.00
7:53 am 07:53 Sunny 77 25 62 16.7 60 60 SE 10 17 29.91 1013 10 16 0.00 0.00
8:53 am 08:53 Sunny 80 26.7 67 19.4 64 64 SSE 16 26 29.92 1013 10 16 0.00 0.00
9:53 am 09:53 Sunny 84 28.9 67 19.4 57 57 SSE 16 26 29.92 1013 10 16 0.00 0.00
10:53 am 10:53 Sunny 87 30.6 64 17.8 46 46 SSE 15 24 29.91 1013 10 16 0.00 0.00
11:53 am 11:53 Sunny 92 33.3 62 16.7 37 37 SE 14 22 29.91 1013 10 16 0.00 0.00
12:53 pm 12:53 Sunny 95 35 55 12.8 26 26 SE 15 24 29.89 1012 10 16 0.00 0.00
1:53 pm 13:53 Sunny 99 37.2 52 11.1 21 21 SSE 15 24 29.88 1012 10 16 0.00 0.00
2:53 pm 14:53 Sunny 100 37.8 53 11.7 21 21 SE 16 26 29.86 1011 10 16 0.00 0.00
3:53 pm 15:53 Sunny 101 38.3 52 11.1 19 19 ESE 15 24 29.84 1010 10 16 0.00 0.00
4:53 pm 16:53 Sunny 100 37.8 50 10 18 18 SE 16 26 29.82 1010 10 16 0.00 0.00
5:53 pm 17:53 Mostly Sunny 101 38.3 51 10.6 19 19 SSE 15 24 29.81 1010 10 16 0.00 0.00
6:53 pm 18:53 Sunny 98 36.7 51 10.6 20 20 ESE 15 24 29.82 1010 10 16 0.00 0.00
7:53 pm 19:53 Sunny 96 35.6 51 10.6 22 22 SE 14 22 29.82 1010 10 16 0.00 0.00
8:53 pm 20:53 Clear 93 33.9 52 11.1 25 25 SSE 12 19 29.84 1011 10 16 0.00 0.00
9:53 pm 21:53 Clear 90 32.2 52 11.1 27 27 SSE 10 17 29.85 1011 10 16 0.00 0.00
10:53 pm 22:53 Clear 87 30.6 52 11.1 30 30 SSE 9 15 29.88 1012 10 16 0.00 0.00
11:53 pm 23:53 Clear 86 30 55 12.8 35 35 SSE 9 15 29.88 1012 10 16 0.00 0.00

Powered by AerisWeather